Regional Weather Roundup
Issued by NWS Mobile, AL

Home | Current Version | Previous Version | Text Only | Print | Product List | Glossary On
Versions: 1 2 3 4 5 6 7 8 9 10 11 12 13 14 15 16 17 18 19 20 21 22 23 24 25 26 27 28 29 30 31 32 33 34 35 36 37 38 39 40 41 42 43 44 45 46 47 48 49 50
000
ASUS44 KMOB 271710
RWRMOB
REGIONAL WEATHER ROUNDUP
NATIONAL WEATHER SERVICE MOBILE AL
1100 AM CST FRI FEB 27 2015

NOTE: "FAIR" INDICATES FEW OR NO CLOUDS BELOW 12,000 FEET WITH NO
      SIGNIFICANT WEATHER AND/OR OBSTRUCTIONS TO VISIBILITY.

  * THESE STATIONS ARE PART OF THE UNIVERSITY OF SOUTH ALABAMA
    MESONET AND ARE NOT UNDER NWS OR FAA QUALITY CONTROL.

ALZ061>064-271800-
COASTAL ALABAMA

CITY           SKY/WX    TMP DP  RH WIND       PRES   REMARKS
MOBILE REG APT PTSUNNY   46  29  51 N15G21    30.39S
BROOKLEY FIELD SUNNY     47  32  56 N14       30.41S
USA CAMPUS*      N/A     46  30  53 NW8       30.39S
DOG RIVER*     NOT AVBL


CITY           SKY/WX    TMP DP  RH WIND       PRES   REMARKS
MOUNT VERNON*    N/A     45  28  53 E6        30.42F
SARALAND*      NOT AVBL
BAY MINETTE*   NOT AVBL
LOXLEY*          N/A     46  34  61 NE16      30.38F
ROBERTSDALE*     N/A     46  32  57 E5        30.38S
FAIRHOPE*        N/A     46  32  57 E12       30.37F
ELBERTA*         N/A     46  32  57 NE12      30.36F
FOLEY*         NOT AVBL
GRAND BAY*       N/A     46  32  57 N10       30.37S
DAUPHIN ISLND* NOT AVBL
BON SCOUR NWR* NOT AVBL
GULF SHORES    SUNNY     48  31  52 NE12G18   30.36F

$$

ALZ051>060-271800-
INTERIOR SOUTHWEST AND SOUTH CENTRAL ALABAMA

CITY           SKY/WX    TMP DP  RH WIND       PRES   REMARKS
GREENVILLE     SUNNY     44  27  51 N10G16    30.39F
EVERGREEN      SUNNY     46  30  53 N9        30.40F
CASTLEBERRY*   NOT AVBL
ATMORE*          N/A     45  32  61 N12       30.40F
DIXIE*           N/A     48  28  46 N5        30.35F
ANDALUSIA/OPP  SUNNY     53  30  41 VRB6      30.37F
ANDALUSIA*       N/A     46  30  53 NE6       30.37F
FLORALA APT    SUNNY     51  31  46 NE13      30.37F
FLORALA*         N/A     48  30  49 N14       30.33F

$$

FLZ001>006-271800-
WESTERN FLORIDA PANHANDLE

CITY           SKY/WX    TMP DP  RH WIND       PRES   REMARKS
PENSACOLA      SUNNY     49  31  49 N14       30.36F
NAS PENSACOLA  PTSUNNY   51  32  48 NE14      30.35F
MILTON         MOSUNNY   49  30  48 NE10G20   30.36F
WHTNG S FIELD  MOSUNNY   53  31  42 N12G22    30.36F


CITY           SKY/WX    TMP DP  RH WIND       PRES   REMARKS
WALNUT HILL*   NOT AVBL
JAY*             N/A     46  30  53 VRB8      30.39F
DUKE FIELD     PTSUNNY   55  29  36 N13G20    30.33F
CRESTVIEW      SUNNY     52  31  44 N12G18    30.37F
VALPARAISO     PTSUNNY   51  29  43 NE13      30.34F
DESTIN         MOSUNNY   49  31  49 NE9       30.36S

$$

MSZ076-079-271800-
INTERIOR SOUTHEAST MISSISSIPPI

CITY           SKY/WX    TMP DP  RH WIND       PRES   REMARKS
LEAKESVILLE*     N/A     43  28  56 E6        30.42F
AGRICOLA*      NOT AVBL

$$

MARINE OBSERVATIONS

STATION/POSITION TIME  TEMP    WIND        PRES    WAVE
                       AIR SEA DIR/SP/G            HT/PER
                 (UTC) (F)     (DEG/KT/KT) (MB)    (FT/S)
PASCAGOULA       1700   45      10/ 11/ 16 1028.5S
PETIT BOIS ISLND 1700   44      30/ 16/ 19 1028.8R
GRAND BAY        1600   41      30/ 13     1029.0S
KATRINA CUT      1600   42      50/ 20     1029.1S
CEDAR POINT      1600   39      30/ 17     1029.1R
E DAUPHIN ISLAND 1559   40      30/ 14/ 16 1028.4F
MIDDLE BAY LIGHT 1600   43      10/ 17     1028.4F
USCG MOBILE BAY  1700   43 50   10/ 11/ 15 1028.3F
STATE DOCKS      1700   45 47              1028.9F
MEAHER PARK      1600   44      10/  8     1029.1F
WEEKS BAY        1600   44                   N/A
FORT MORGAN      1700   44      40/ 14/ 16 1028.0R
12 S ORANGE BCH  1700   46 62   40/ 17/ 21 1027.0F   3/ 4
PENSACOLA BAY    1700           20/  9/ 17   N/A
64 S DAUPHIN ISL 1552   50 65   70/ 21/ 27 1027.1    7/ 7
67 S FORT MORGAN 1600   51      60/ 23     1026.8S

$$

SELECTED LOCATIONS ACROSS THE REGION

CITY           SKY/WX    TMP DP  RH WIND       PRES   REMARKS
NEW ORLEANS    PTSUNNY   46  33  60 NE13      30.41S
GULFPORT       SUNNY     47  30  51 N15G21    30.39F
PASCAGOULA AP  SUNNY     48  30  49 NE14      30.39S
PASCAGOULA*    NOT AVBL
HATTIESBURG    CLOUDY    36  29  75 NE10      30.47R
LAUREL         CLOUDY    36  27  69 N10       30.46S
MERIDIAN       SUNNY     40  25  55 NE12      30.47S
JACKSON        PTSUNNY   37  25  61 N9        30.49R
MONTGOMERY     SUNNY     44  28  53 N9        30.44F
TROY           SUNNY     47  29  49 NE8       30.40F
KINSTON*       NOT AVBL
GENEVA*          N/A     50  32  50 E10       30.40S
ASHFORD*         N/A     46  30  53 NE6       30.37F
DOTHAN         SUNNY     51  32  48 N9G16     30.40F
PANAMA CITY    PTSUNNY   49  32  52 NE12      30.34F

$$



USA.gov is the U.S. government's official web portal to all federal, state and local government web resources and services.